Dewpoint
54 54 56 55 57 62 64 64 65 65 65 66 66 68 68 68 69 68 70 70 71 72 70 70 70 70 71 71 71 72 73 74 75 75 76 76 77 76 76 76 76 76 76 75 75 76 74 73 74 75 75 75 74 73 74 74 73 73 75 75 75 72 72 72 71 68 64 63 67 66 65 67 73 72 66 67 67 68 68 69 69 68 69 70 71
53 54 55 54 58 62 63 63 65 63 64 65 66 67 68 68 68 69 70 70 71 71 71 70 70 70 69 70 71 72 73 73 73 75 75 76 76 76 76 75 75 75 76 75 75 74 74 74 74 74 75 74 75 75 74 78 75 74 74 72 74 73 70 72 70 66 65 62 62 62 66 66 68 71 67 64 65 66 66 66 66 66 66 67 68
52 53 54 55 59 61 62 63 63 64 64 64 66 67 68 68 68 70 70 70 70 72 71 70 71 70 70 70 71 72 73 73 73 75 76 75 75 75 75 74 74 74 75 76 75 75 74 74 74 74 75 76 74 73 74 74 74 73 74 72 71 73 73 74 69 66 64 68 67 64 60 60 65 65 64 64 64 63 64 64 64 64 64 65 66
51 53 53 55 59 60 61 62 63 63 64 64 65 67 67 69 69 69 70 70 70 72 72 71 71 71 70 70 71 71 71 74 74 75 75 75 75 75 74 74 74 74 75 76 75 74 74 74 75 75 74 75 74 73 73 73 73 73 74 75 72 69 70 67 70 69 67 63 59 61 60 62 59 60 63 64 64 63 62 62 63 63 63 64 65
51 53 53 55 58 59 61 62 63 63 63 63 65 67 67 68 69 69 70 70 70 73 72 71 72 71 71 72 73 72 72 72 73 74 74 75 74 74 74 74 74 74 74 75 77 74 74 74 75 74 74 75 75 74 73 74 73 74 73 73 72 69 68 68 68 70 69 67 67 61 59 59 60 61 63 62 67 64 62 60 65 62 61 62 63
59 54 53 54 58 59 61 62 63 63 63 63 64 66 67 69 70 70 70 70 70 72 72 71 73 71 70 70 70 70 70 70 71 72 73 74 73 74 74 75 74 74 74 75 76 76 74 75 75 75 75 75 75 74 74 74 74 73 74 73 73 73 69 70 65 68 69 72 69 64 62 59 58 61 58 55 64 69 66 60 62 62 60 63 63
64 64 57 53 57 59 61 62 62 62 63 62 63 66 67 69 70 70 70 70 70 71 72 72 71 70 70 70 70 69 69 69 70 72 73 74 73 74 74 74 75 75 74 75 75 75 75 75 75 75 75 75 76 75 74 74 73 74 74 74 73 75 73 69 67 67 66 68 70 68 69 71 64 63 59 63 55 57 66 55 58 59 60 61 61
63 63 63 53 57 59 60 62 62 62 62 62 63 66 67 69 70 70 70 71 70 70 72 71 70 70 70 70 70 70 69 69 70 71 73 74 73 73 74 74 74 75 74 74 75 75 76 75 75 74 75 75 76 75 73 73 73 74 75 74 75 76 72 68 67 68 62 64 72 71 71 71 67 66 63 59 59 57 57 60 58 56 58 60 61
63 62 63 58 56 59 60 61 61 62 62 62 63 66 67 69 70 69 70 71 70 70 72 72 71 70 69 70 70 70 70 70 71 72 72 73 73 74 74 74 74 74 74 73 75 75 77 76 75 75 75 75 77 76 75 75 73 73 74 74 73 73 73 72 69 69 67 66 68 67 69 69 67 67 65 67 63 58 59 60 56 59 60 59 59
66 63 63 61 55 58 60 61 61 61 62 64 63 67 67 69 70 69 69 70 70 70 72 72 71 71 70 70 70 70 71 71 71 70 72 72 72 73 74 73 73 73 73 74 75 75 76 76 76 76 75 75 77 75 75 74 74 74 74 74 74 72 73 72 68 69 70 69 68 67 65 65 65 66 64 63 62 60 58 59 61 57 55 58 66
66 65 65 65 57 58 59 60 60 61 62 63 63 67 67 69 70 69 69 70 70 69 72 71 71 70 70 70 71 70 70 71 70 70 71 72 71 72 73 73 72 72 73 75 75 75 76 77 76 76 75 76 77 74 73 74 74 74 74 75 74 72 72 72 73 72 73 72 69 69 66 66 64 64 64 64 62 59 61 60 61 62 57 58 60
65 64 64 65 65 57 58 60 60 61 61 63 63 66 67 68 70 69 69 70 70 69 72 71 71 71 70 71 70 71 70 70 70 70 71 71 71 72 73 73 72 72 74 74 75 75 76 76 77 76 76 75 75 74 74 75 75 75 74 74 73 74 74 73 72 70 71 70 69 69 68 69 68 67 66 67 64 61 62 61 62 63 61 61 62
64 64 63 64 63 59 57 59 60 60 61 62 64 65 67 67 69 69 70 70 70 69 71 71 71 71 71 71 70 71 71 70 70 71 71 72 72 72 73 73 72 72 74 74 75 74 76 76 75 75 75 75 75 74 76 75 74 74 73 74 74 73 73 73 72 71 71 69 69 69 68 68 67 66 67 64 67 66 64 61 63 68 63 64 63
63 63 63 63 64 60 58 59 60 60 60 61 64 66 67 67 68 68 70 71 70 69 71 71 71 70 71 72 71 71 71 70 70 71 71 72 73 72 73 73 73 72 73 74 74 74 75 75 75 75 75 74 75 75 75 76 76 75 74 73 74 74 73 73 73 73 72 72 71 68 66 68 67 68 66 66 66 63 64 63 66 64 67 67 67
64 64 63 63 64 63 60 59 60 60 60 61 64 66 67 67 68 68 69 71 70 69 71 71 71 71 71 72 72 71 71 71 71 72 72 73 73 72 74 74 73 73 73 73 75 74 74 75 75 75 74 74 75 75 76 76 77 76 75 73 73 74 73 73 73 72 71 71 69 68 69 69 68 68 68 67 68 66 66 66 64 61 61 66 68
65 65 64 64 65 66 63 61 61 60 60 61 64 67 67 67 68 68 68 71 71 70 70 72 71 71 71 71 72 73 73 72 73 74 73 73 73 73 73 73 74 73 74 74 74 74 74 74 75 75 75 76 75 75 75 75 76 75 75 75 74 76 73 73 73 72 71 71 70 69 68 67 68 68 69 70 70 71 70 70 66 64 61 60 65
68 68 68 69 69 69 69 70 71 62 60 61 65 67 68 68 69 69 69 71 71 71 70 71 72 71 72 71 71 73 73 72 72 73 73 73 74 74 73 73 73 73 73 74 74 74 74 74 74 74 76 76 76 75 76 75 76 75 74 75 75 75 73 73 73 72 71 70 70 69 68 67 69 71 69 69 71 71 71 70 68 66 66 64 64
68 68 68 69 69 69 69 71 71 72 67 65 66 67 68 68 69 69 69 70 71 70 71 71 72 72 72 71 71 72 72 72 72 72 72 73 73 74 74 73 73 73 73 73 74 74 74 77 74 74 75 76 76 76 76 76 76 75 75 75 76 76 75 73 74 73 72 72 72 71 68 67 68 69 68 68 69 70 67 69 71 71 69 64 65
67 68 68 68 67 68 68 70 71 71 72 69 68 68 69 69 70 70 70 71 71 71 71 71 71 72 72 72 71 72 72 72 72 72 72 72 72 73 73 73 73 73 73 73 73 73 73 75 74 74 75 76 75 76 76 76 75 75 75 75 75 75 74 73 73 74 73 73 72 71 71 69 68 68 69 71 72 71 69 70 72 72 71 69 69
68 69 69 69 69 69 69 70 69 69 69 69 69 70 69 69 71 71 70 71 72 72 72 72 71 71 72 72 72 72 72 72 71 72 70 71 71 71 72 72 72 73 73 73 73 73 73 73 74 73 75 75 75 75 76 75 75 75 75 75 75 75 74 74 74 74 73 73 72 72 72 71 69 71 70 72 70 71 72 69 70 72 73 71 70
67 66 68 69 68 69 69 71 69 68 69 71 71 70 70 70 70 72 71 71 72 72 72 72 72 71 72 72 72 72 72 71 71 71 70 70 70 71 71 72 72 72 73 72 73 72 72 73 73 73 74 74 75 75 75 75 75 74 75 75 74 74 74 74 75 75 75 74 73 72 72 72 72 71 70 71 71 70 70 70 70 71 71 71 69
62 66 68 69 70 72 72 72 72 71 71 70 71 71 71 71 71 70 72 72 72 72 73 73 72 72 71 72 72 72 72 71 70 70 70 69 69 70 70 71 71 71 71 72 72 72 73 73 73 73 73 73 74 74 75 75 75 74 75 76 75 74 74 74 74 74 74 75 74 73 72 72 73 71 70 70 70 70 69 68 68 69 69 69 70
61 63 65 66 67 71 70 71 71 70 70 71 71 71 71 71 72 71 71 71 72 71 71 71 71 72 72 72 72 72 72 71 70 70 70 69 68 69 69 69 70 70 71 72 72 72 73 73 73 73 73 73 73 73 74 74 75 75 74 75 75 75 74 74 74 74 74 73 73 73 73 72 74 72 72 71 72 71 71 69 68 68 67 66 69
60 63 64 64 65 67 69 69 69 70 70 70 70 70 71 71 71 71 72 72 72 72 71 70 71 71 70 71 72 72 72 71 70 70 70 69 68 68 69 68 69 69 70 71 72 72 72 73 72 72 72 72 73 73 73 74 74 74 74 74 74 74 75 74 74 74 74 74 73 73 73 73 73 72 72 72 71 71 71 71 70 70 69 68 67
59 60 62 63 64 64 65 68 69 69 69 70 71 71 71 72 72 71 71 72 72 72 71 71 72 71 72 71 70 71 71 71 71 70 69 69 68 67 68 67 67 68 69 70 71 72 72 72 72 72 72 71 72 73 72 73 73 74 74 74 74 73 74 74 74 74 76 74 74 73 73 73 73 72 72 72 72 71 71 71 70 70 71 71 70
58 59 60 62 62 63 63 65 66 68 69 70 71 71 71 71 71 72 71 71 72 72 71 70 70 72 72 71 70 69 69 71 70 68 68 67 67 66 66 68 67 66 67 69 70 71 71 72 72 71 71 71 71 72 72 72 72 73 73 73 73 73 73 74 74 75 74 75 74 73 73 73 73 73 72 72 72 72 71 71 70 70 70 71 71
58 58 59 61 61 62 62 63 65 66 67 68 69 70 71 71 71 72 72 72 72 71 70 69 69 72 71 70 70 69 70 71 71 69 68 69 69 69 67 65 67 65 65 66 68 70 71 71 72 71 71 72 71 72 72 72 72 72 73 73 73 73 73 73 74 74 74 74 74 73 73 73 72 72 72 72 72 72 72 71 71 71 70 70 70
59 59 59 60 61 61 62 62 64 65 67 68 69 70 70 71 71 71 71 72 71 71 71 70 70 71 71 70 71 71 72 72 72 72 70 70 71 72 72 71 69 66 64 64 66 68 69 70 71 71 71 71 72 72 72 72 71 71 72 73 73 73 72 72 72 73 73 73 73 73 73 73 72 72 72 72 72 71 72 71 71 71 71 70 70
58 58 58 59 60 61 62 62 63 64 65 66 68 69 70 70 71 71 72 72 73 73 72 73 72 72 72 71 71 73 73 72 72 72 71 70 71 72 72 71 72 69 65 64 64 66 68 69 69 70 70 71 71 71 72 72 71 71 70 70 72 72 72 72 72 71 71 72 72 72 71 71 72 76 75 75 74 74 71 71 71 72 71 71 70
56 57 56 58 59 60 61 62 63 63 64 66 67 68 68 69 70 71 70 71 72 72 72 72 72 73 73 72 72 72 72 72 71 71 71 71 72 72 72 72 72 72 71 67 65 65 66 68 69 69 69 69 69 70 72 70 71 71 71 70 71 71 71 71 71 71 70 69 69 69 70 75 76 76 74 73 71 73 75 73 71 71 71 71 70
51 51 54 55 57 60 59 60 61 62 64 65 66 67 68 69 70 70 70 71 71 71 71 71 71 72 72 72 72 73 73 72 72 72 72 72 73 73 72 71 72 72 71 72 69 64 64 65 68 69 69 69 69 69 68 65 67 69 71 70 70 70 70 70 70 70 69 69 69 68 68 71 75 76 74 72 71 70 70 73 74 74 74 71 70
48 49 49 51 54 56 59 60 61 61 62 63 64 66 67 68 68 68 69 70 70 69 69 69 70 70 70 71 71 71 71 72 72 73 73 73 74 73 72 71 72 72 72 72 71 70 70 68 66 67 68 69 69 69 64 64 64 65 69 71 70 69 69 69 69 68 68 68 68 68 68 67 68 69 69 70 72 72 69 69 70 71 72 73 73
48 49 49 49 49 51 54 57 59 59 61 61 63 65 65 67 68 68 69 68 69 69 69 69 69 70 70 70 70 70 71 71 72 72 73 73 73 73 73 72 72 72 72 72 71 71 71 71 71 71 69 68 68 67 64 63 63 63 63 69 70 70 69 69 68 68 68 67 67 68 68 68 66 72 72 69 68 68 70 69 68 68 70 70 68
46 48 49 51 52 51 50 53 56 59 60 61 63 64 64 65 65 66 66 67 67 68 68 68 69 69 69 70 70 71 71 71 72 73 72 72 72 72 73 73 73 73 72 72 73 71 71 70 71 71 71 71 70 66 63 61 61 61 62 64 69 70 69 69 69 68 68 67 67 67 67 67 67 67 68 68 68 68 69 70 70 70 69 70 70
45 45 46 49 51 50 50 50 51 53 57 59 59 62 63 62 62 63 64 64 64 64 65 66 67 68 69 69 69 70 70 71 71 71 71 71 72 72 73 74 74 74 73 72 73 72 72 72 72 71 70 70 68 62 61 59 58 59 60 62 65 67 69 69 69 69 69 67 67 67 66 66 66 66 67 67 66 65 65 66 67 68 69 69 69
45 46 47 48 48 49 47 49 53 50 52 53 53 55 57 62 61 61 61 62 63 63 62 63 63 65 66 68 68 69 69 70 71 71 70 71 71 71 71 72 73 73 73 74 73 73 72 72 72 71 71 69 68 61 61 59 57 56 58 63 64 65 66 67 68 69 69 69 68 67 66 66 66 66 68 67 69 68 66 65 65 66 67 68 68
46 45 46 49 49 46 47 48 48 51 53 54 54 55 56 57 58 56 56 56 57 58 59 61 62 63 64 65 66 66 67 66 68 70 70 70 71 70 71 72 71 72 72 72 72 72 72 72 72 72 71 70 68 63 60 59 57 56 60 63 64 64 65 65 66 67 68 68 67 67 66 66 65 66 66 62 63 69 68 67 66 66 66 66 66
44 45 47 48 46 45 48 47 49 51 52 53 53 55 55 55 55 55 55 56 55 55 56 57 56 57 61 63 64 64 64 65 65 67 69 69 71 71 70 72 71 71 72 72 72 72 72 72 71 71 72 71 69 66 58 56 57 57 63 64 65 65 64 64 64 65 67 67 68 71 72 67 66 66 64 62 62 66 66 67 66 66 66 66 67
45 46 45 46 49 49 48 49 48 51 53 54 54 55 55 55 56 55 56 56 55 56 56 56 56 57 58 61 62 64 63 63 64 65 67 69 69 68 69 70 71 72 72 72 72 72 73 72 73 73 72 72 72 67 55 57 56 56 62 67 67 67 66 66 65 65 65 66 66 70 72 71 69 67 62 62 62 66 67 67 67 67 66 66 66
47 47 46 47 48 46 47 47 48 51 53 53 53 55 58 56 55 55 55 56 56 57 57 56 56 58 59 60 59 61 62 64 64 64 65 67 68 68 68 69 70 72 71 72 73 72 72 72 73 72 72 71 72 72 70 60 57 56 58 69 69 68 68 68 67 67 67 66 67 67 68 64 62 62 61 59 59 59 67 67 68 67 66 66 66
46 48 52 45 45 45 46 47 49 50 52 55 55 54 55 56 54 53 54 54 54 56 57 56 57 58 57 56 56 58 59 59 61 64 66 67 67 67 67 67 68 69 70 69 70 72 71 71 72 72 73 72 72 73 72 64 59 56 55 60 68 69 69 69 69 69 69 68 68 68 68 66 60 58 58 57 57 56 60 66 68 68 68 68 69
54 54 51 46 47 48 48 48 49 50 51 53 55 55 55 53 52 53 54 53 54 55 57 57 58 57 57 56 57 58 60 60 60 61 61 62 64 65 66 66 66 68 68 69 70 71 71 70 71 71 72 72 73 73 73 68 62 56 54 53 65 68 69 69 69 69 69 69 69 69 69 68 63 61 58 56 54 54 56 64 66 60 60 61 65
45 47 51 48 48 48 48 49 50 50 51 52 55 56 55 53 52 53 55 55 57 57 57 58 58 57 57 57 58 58 59 59 60 61 60 59 60 61 63 66 66 66 67 68 68 69 71 70 70 70 71 72 72 73 71 72 66 58 54 52 54 61 62 68 68 69 69 70 70 71 71 70 62 57 55 54 54 54 57 61 57 56 57 58 63
47 48 49 51 49 49 49 49 50 51 51 52 54 56 56 54 52 55 55 57 57 57 57 57 58 56 57 57 57 58 57 57 58 58 57 56 56 56 58 60 64 65 66 66 67 68 69 70 70 70 70 72 69 71 71 69 69 62 53 52 52 53 55 63 67 68 69 70 70 70 69 58 53 51 52 53 54 55 60 56 55 55 56 58 62
48 49 51 49 48 49 49 49 49 50 52 52 52 54 55 53 53 57 56 56 57 57 57 56 54 54 55 55 55 56 56 57 57 57 57 58 57 57 57 56 58 60 63 64 65 67 67 69 69 69 70 70 70 71 72 70 67 66 59 54 53 54 55 53 60 66 68 69 65 59 55 54 55 54 54 55 57 59 57 55 55 55 58 62 63
47 48 48 48 48 49 49 49 48 50 51 53 52 52 53 52 55 55 54 55 57 57 57 55 54 54 54 54 54 55 56 56 56 56 57 58 56 58 57 57 56 56 58 60 60 65 63 65 66 66 65 63 63 65 67 70 72 72 69 60 55 54 59 59 61 63 61 59 56 55 54 54 56 59 63 65 65 66 62 61 60 60 62 63 64
48 50 50 48 48 49 50 52 50 50 51 52 51 51 52 53 53 52 52 55 56 55 55 53 52 52 53 54 54 56 54 53 54 53 53 55 56 56 55 57 56 55 55 57 56 58 57 57 59 60 60 59 57 61 65 67 69 69 68 67 66 66 64 62 63 64 63 64 65 64 64 60 60 60 60 60 60 62 63 65 66 66 67 67 66
49 50 50 48 47 48 50 52 51 49 51 51 50 50 51 50 50 51 51 53 55 54 53 51 51 52 53 54 55 55 54 53 53 54 53 53 55 56 55 55 55 54 55 55 55 56 55 56 56 56 55 56 57 57 61 63 65 67 67 65 65 66 66 66 67 67 67 68 69 67 65 68 68 68 67 67 66 66 66 66 66 67 67 68 68
47 48 48 47 49 49 50 51 49 49 50 50 49 50 51 50 50 50 51 51 54 55 55 51 51 51 51 54 55 52 52 53 52 52 53 53 54 54 54 54 55 56 57 56 54 54 57 55 55 55 55 55 55 56 58 58 64 60 62 63 63 63 63 64 65 55 61 64 65 66 66 66 67 67 67 67 68 69 69 69 69 69 69 69 68
47 48 48 49 51 49 51 50 48 49 50 50 49 50 50 50 50 50 51 52 53 53 51 51 51 51 51 52 53 51 51 54 52 51 51 51 54 52 51 54 54 58 55 50 50 53 54 53 53 54 55 55 54 55 54 49 48 48 48 48 49 47 45 52 53 52 58 61 63 64 64 65 65 66 66 66 66 67 67 67 68 66 68 68 68
46 45 45 47 49 51 51 49 48 50 49 50 50 49 48 49 50 50 51 52 51 53 52 51 53 51 53 54 53 52 52 52 52 52 52 53 52 52 49 49 51 53 49 46 45 45 46 49 56 53 54 52 52 49 46 45 45 46 46 46 45 45 46 45 46 54 60 62 62 63 63 64 65 65 65 66 66 66 66 67 67 67 68 68 67